timestamp,wind_dir_avg,wind_spd_avg,wind_spd_max_dir,wind_spd_gust,battery_voltage,lat,long
2021-08-17 00:04:00+00:00,51.0,5.74,50.0,6.19,12.81,47.59359,-54.27349
2021-08-17 00:14:01+00:00,53.0,5.0,53.0,5.56,12.65,47.59359,-54.27349
2021-08-17 00:24:01+00:00,51.0,5.76,47.0,6.45,12.65,47.59359,-54.27349
2021-08-17 00:34:01+00:00,35.0,5.66,35.0,6.59,12.65,47.59359,-54.27349
2021-08-17 00:44:01+00:00,33.0,4.52,34.0,4.92,12.65,47.59359,-54.27349
2021-08-17 00:54:01+00:00,40.0,3.99,40.0,4.59,12.65,47.59359,-54.27349
2021-08-17 01:04:01+00:00,38.0,3.49,45.0,3.85,12.65,47.59359,-54.27349
2021-08-17 01:14:01+00:00,56.0,2.9,55.0,3.27,12.65,47.59359,-54.27349
2021-08-17 01:24:01+00:00,45.0,3.47,48.0,3.99,12.65,47.59359,-54.27349
2021-08-17 01:34:01+00:00,8.0,2.03,5.0,2.28,12.65,47.59359,-54.27349
2021-08-17 01:44:01+00:00,2.0,2.75,7.0,2.92,12.65,47.59359,-54.27349
2021-08-17 01:54:01+00:00,4.0,2.95,3.0,3.27,12.65,47.59359,-54.27349
2021-08-17 02:04:01+00:00,348.0,2.86,346.0,3.03,12.65,47.59359,-54.27349
2021-08-17 02:14:01+00:00,347.0,2.72,349.0,2.9,12.65,47.59359,-54.27349
2021-08-17 02:24:01+00:00,333.0,1.98,335.0,2.15,12.65,47.59359,-54.27349
2021-08-17 02:34:01+00:00,336.0,2.27,338.0,2.47,12.65,47.59359,-54.27349
2021-08-17 02:44:01+00:00,336.0,2.44,334.0,2.87,12.65,47.59359,-54.27349
2021-08-17 02:54:01+00:00,347.0,1.84,351.0,2.04,12.65,47.59359,-54.27349
2021-08-17 03:04:01+00:00,325.0,1.73,330.0,2.09,12.65,47.59359,-54.27349
2021-08-17 03:14:01+00:00,356.0,2.09,1.0,2.36,12.65,47.59359,-54.27349
2021-08-17 03:24:01+00:00,20.0,1.43,9.0,1.64,12.65,47.59359,-54.27349
2021-08-17 03:34:01+00:00,354.0,2.22,353.0,2.36,12.65,47.59359,-54.27349
2021-08-17 03:44:01+00:00,339.0,2.34,336.0,2.76,12.65,47.59359,-54.27349
2021-08-17 03:54:01+00:00,339.0,2.86,337.0,3.26,12.65,47.59359,-54.27349
2021-08-17 04:04:01+00:00,321.0,2.9,324.0,3.2,12.65,47.59359,-54.27349
2021-08-17 04:14:01+00:00,324.0,2.58,324.0,2.91,12.65,47.59359,-54.27349
2021-08-17 04:24:01+00:00,324.0,1.91,324.0,2.14,12.65,47.59359,-54.27349
2021-08-17 04:34:01+00:00,312.0,1.66,312.0,1.82,12.65,47.59359,-54.27349
2021-08-17 04:44:01+00:00,255.0,1.09,252.0,1.19,12.65,47.59359,-54.27349
2021-08-17 04:54:01+00:00,287.0,1.81,290.0,2.02,12.65,47.59359,-54.27349
2021-08-17 05:04:01+00:00,309.0,2.47,305.0,2.75,12.65,47.59359,-54.27349
2021-08-17 05:14:01+00:00,303.0,3.48,300.0,3.87,12.57,47.59359,-54.27349
2021-08-17 05:24:01+00:00,304.0,2.67,302.0,2.91,12.57,47.59359,-54.27349
2021-08-17 05:34:01+00:00,313.0,3.06,312.0,3.37,12.57,47.59359,-54.27349
2021-08-17 05:44:01+00:00,317.0,2.96,320.0,3.23,12.57,47.59359,-54.27349
2021-08-17 05:54:01+00:00,308.0,1.74,310.0,2.33,12.57,47.59359,-54.27349
2021-08-17 06:04:01+00:00,297.0,2.79,299.0,3.25,12.57,47.59359,-54.27349
2021-08-17 06:14:00+00:00,284.0,2.74,286.0,2.93,12.57,47.59359,-54.27349
2021-08-17 06:24:00+00:00,281.0,2.79,282.0,2.98,12.57,47.59359,-54.27349
2021-08-17 06:34:00+00:00,294.0,2.61,293.0,2.96,12.57,47.59359,-54.27349
2021-08-17 06:44:00+00:00,290.0,2.46,288.0,2.68,12.57,47.59359,-54.27349
2021-08-17 06:54:00+00:00,300.0,1.82,296.0,2.17,12.57,47.59359,-54.27349
2021-08-17 07:04:00+00:00,326.0,1.68,327.0,2.05,12.57,47.59359,-54.27349
2021-08-17 07:14:01+00:00,344.0,1.45,333.0,2.03,12.57,47.59359,-54.27349
2021-08-17 07:24:01+00:00,338.0,1.14,344.0,1.44,12.57,47.59359,-54.27349
2021-08-17 07:34:01+00:00,283.0,1.14,284.0,1.32,12.57,47.59359,-54.27349
2021-08-17 07:44:01+00:00,278.0,1.03,283.0,1.26,12.57,47.59359,-54.27349
2021-08-17 07:54:01+00:00,273.0,1.81,275.0,1.99,12.57,47.59359,-54.27349
2021-08-17 08:04:01+00:00,257.0,1.85,258.0,2.26,12.57,47.59359,-54.27349
2021-08-17 08:14:01+00:00,249.0,1.95,249.0,2.16,12.49,47.59359,-54.27349
2021-08-17 08:24:01+00:00,227.0,1.98,234.0,2.48,12.49,47.59359,-54.27349
2021-08-17 08:34:01+00:00,242.0,2.69,243.0,2.87,12.49,47.59359,-54.27349
2021-08-17 08:44:01+00:00,262.0,3.62,261.0,3.99,12.49,47.59359,-54.27349
2021-08-17 08:54:01+00:00,252.0,3.13,254.0,3.46,12.49,47.59359,-54.27349
2021-08-17 09:04:01+00:00,240.0,2.69,235.0,2.98,12.49,47.59359,-54.27349
2021-08-17 09:14:00+00:00,241.0,3.03,246.0,3.38,12.57,47.59359,-54.27349
2021-08-17 09:24:00+00:00,239.0,3.48,245.0,3.82,12.57,47.59359,-54.27349
2021-08-17 09:34:00+00:00,234.0,3.45,238.0,4.1,12.57,47.59359,-54.27349
2021-08-17 09:44:00+00:00,230.0,4.61,227.0,5.21,12.57,47.59359,-54.27349
2021-08-17 09:54:00+00:00,226.0,4.53,225.0,4.98,12.57,47.59359,-54.27349
2021-08-17 10:04:00+00:00,231.0,3.41,234.0,3.74,12.57,47.59359,-54.27349
2021-08-17 10:14:01+00:00,231.0,3.96,228.0,4.41,13.37,47.59359,-54.27349
2021-08-17 10:24:01+00:00,229.0,4.68,230.0,5.61,13.37,47.59359,-54.27349
2021-08-17 10:34:01+00:00,212.0,4.55,215.0,4.96,13.37,47.59359,-54.27349
2021-08-17 10:44:01+00:00,211.0,4.16,212.0,4.45,13.37,47.59359,-54.27349
2021-08-17 10:54:01+00:00,220.0,4.27,230.0,5.1,13.37,47.59359,-54.27349
2021-08-17 11:04:01+00:00,238.0,3.6,242.0,4.44,13.37,47.59359,-54.27349
2021-08-17 11:14:01+00:00,226.0,3.11,229.0,3.59,13.84,47.59359,-54.27349
2021-08-17 11:24:01+00:00,217.0,4.41,220.0,4.98,13.84,47.59359,-54.27349
2021-08-17 11:34:01+00:00,229.0,3.78,226.0,4.5,13.84,47.59359,-54.27349
2021-08-17 11:44:01+00:00,230.0,3.9,231.0,4.57,13.84,47.59359,-54.27349
2021-08-17 11:54:01+00:00,238.0,4.91,239.0,5.52,13.84,47.59359,-54.27349
2021-08-17 12:04:01+00:00,226.0,5.09,227.0,5.71,13.84,47.59359,-54.27349
2021-08-17 12:14:01+00:00,221.0,5.75,220.0,6.19,13.92,47.59359,-54.27349
2021-08-17 12:24:01+00:00,211.0,6.14,212.0,6.74,13.92,47.59359,-54.27349
2021-08-17 12:34:01+00:00,209.0,6.74,211.0,7.77,13.92,47.59359,-54.27349
2021-08-17 12:44:01+00:00,209.0,6.77,208.0,7.16,13.92,47.59359,-54.27349
2021-08-17 12:54:01+00:00,210.0,7.23,209.0,8.24,13.92,47.59359,-54.27349
2021-08-17 13:04:01+00:00,207.0,6.67,209.0,7.39,13.92,47.59359,-54.27349
2021-08-17 13:14:01+00:00,202.0,6.42,204.0,7.14,14.08,47.59359,-54.27349
2021-08-17 13:24:01+00:00,194.0,7.19,196.0,7.63,14.08,47.59359,-54.27349
2021-08-17 13:34:01+00:00,195.0,7.82,196.0,8.3,14.08,47.59359,-54.27349
2021-08-17 13:44:01+00:00,190.0,7.93,192.0,8.7,14.08,47.59359,-54.27349
2021-08-17 13:54:01+00:00,195.0,6.8,195.0,7.51,14.08,47.59359,-54.27349
2021-08-17 14:04:01+00:00,192.0,6.94,192.0,7.65,14.08,47.59359,-54.27349
2021-08-17 14:14:01+00:00,205.0,8.11,198.0,9.56,14.32,47.59359,-54.27349
2021-08-17 14:24:01+00:00,200.0,7.96,199.0,8.57,14.32,47.59359,-54.27349
2021-08-17 14:34:01+00:00,201.0,8.81,204.0,9.95,14.32,47.59359,-54.27349
2021-08-17 14:44:01+00:00,203.0,8.06,205.0,8.9,14.32,47.59359,-54.27349
2021-08-17 14:54:01+00:00,202.0,7.92,206.0,9.1,14.32,47.59359,-54.27349
2021-08-17 15:04:01+00:00,210.0,9.41,209.0,10.76,14.32,47.59359,-54.27349
2021-08-17 15:14:01+00:00,206.0,8.81,210.0,9.81,14.16,47.59359,-54.27349
2021-08-17 15:24:01+00:00,205.0,8.27,204.0,9.45,14.16,47.59359,-54.27349
2021-08-17 15:34:01+00:00,214.0,9.38,214.0,10.79,14.16,47.59359,-54.27349
2021-08-17 15:44:01+00:00,214.0,10.05,214.0,11.58,14.16,47.59359,-54.27349
2021-08-17 15:54:01+00:00,214.0,9.67,214.0,11.02,14.16,47.59359,-54.27349
2021-08-17 16:04:01+00:00,214.0,9.57,214.0,10.97,14.16,47.59359,-54.27349
2021-08-17 16:14:01+00:00,216.0,10.17,218.0,11.05,14.08,47.59359,-54.27349
2021-08-17 16:24:01+00:00,216.0,9.35,215.0,10.08,14.08,47.59359,-54.27349
2021-08-17 16:34:01+00:00,212.0,9.55,216.0,10.69,14.08,47.59359,-54.27349
2021-08-17 16:44:01+00:00,209.0,9.3,208.0,10.21,14.08,47.59359,-54.27349
2021-08-17 16:54:01+00:00,212.0,9.02,216.0,10.36,14.08,47.59359,-54.27349
2021-08-17 17:04:01+00:00,216.0,8.41,218.0,10.41,14.08,47.59359,-54.27349
2021-08-17 17:14:01+00:00,215.0,7.9,214.0,8.94,14.16,47.59359,-54.27349
2021-08-17 17:24:01+00:00,216.0,8.38,216.0,9.38,14.16,47.59359,-54.27349
2021-08-17 17:34:01+00:00,216.0,7.57,213.0,8.38,14.16,47.59359,-54.27349
2021-08-17 17:44:01+00:00,215.0,8.58,217.0,10.62,14.16,47.59359,-54.27349
2021-08-17 17:54:01+00:00,215.0,8.64,216.0,9.68,14.16,47.59359,-54.27349
2021-08-17 18:04:01+00:00,215.0,8.76,214.0,9.95,14.16,47.59359,-54.27349
2021-08-17 18:14:01+00:00,215.0,9.72,215.0,10.78,13.76,47.59359,-54.27349
2021-08-17 18:24:01+00:00,212.0,7.94,212.0,9.09,13.76,47.59359,-54.27349
2021-08-17 18:34:01+00:00,217.0,8.28,212.0,10.03,13.76,47.59359,-54.27349
2021-08-17 18:44:01+00:00,215.0,7.53,213.0,9.18,13.76,47.59359,-54.27349
2021-08-17 18:54:01+00:00,220.0,7.2,219.0,8.66,13.76,47.59359,-54.27349
2021-08-17 19:04:01+00:00,216.0,8.01,213.0,9.12,13.76,47.59359,-54.27349
2021-08-17 19:14:01+00:00,220.0,7.39,219.0,8.68,13.84,47.59359,-54.27349
2021-08-17 19:24:01+00:00,216.0,7.01,212.0,8.37,13.84,47.59359,-54.27349
2021-08-17 19:34:01+00:00,215.0,9.0,214.0,10.18,13.84,47.59359,-54.27349
2021-08-17 19:44:01+00:00,218.0,8.62,219.0,9.36,13.84,47.59359,-54.27349
2021-08-17 19:54:01+00:00,217.0,7.79,214.0,8.61,13.84,47.59359,-54.27349
2021-08-17 20:04:01+00:00,222.0,8.62,222.0,9.36,13.84,47.59359,-54.27349
2021-08-17 20:14:01+00:00,230.0,8.67,231.0,9.83,13.6,47.59359,-54.27349
2021-08-17 20:24:01+00:00,239.0,9.7,238.0,10.64,13.6,47.59359,-54.27349
2021-08-17 20:34:01+00:00,248.0,8.47,251.0,9.5,13.6,47.59359,-54.27349
2021-08-17 20:44:01+00:00,247.0,8.77,245.0,9.55,13.6,47.59359,-54.27349
2021-08-17 20:54:01+00:00,244.0,9.29,244.0,9.97,13.6,47.59359,-54.27349
2021-08-17 21:04:01+00:00,243.0,7.11,246.0,8.54,13.6,47.59359,-54.27349
2021-08-17 21:14:01+00:00,240.0,8.06,239.0,8.86,13.68,47.59359,-54.27349
2021-08-17 21:24:01+00:00,241.0,7.33,245.0,8.38,13.68,47.59359,-54.27349
2021-08-17 21:34:01+00:00,241.0,6.77,241.0,7.25,13.68,47.59359,-54.27349
2021-08-17 21:44:01+00:00,234.0,6.76,233.0,7.67,13.68,47.59359,-54.27349
2021-08-17 21:54:01+00:00,234.0,6.9,236.0,7.83,13.68,47.59359,-54.27349
2021-08-17 22:04:01+00:00,230.0,7.21,232.0,8.23,13.68,47.59359,-54.27349
2021-08-17 22:14:01+00:00,234.0,6.23,229.0,7.12,13.37,47.59359,-54.27349
2021-08-17 22:24:01+00:00,233.0,6.78,230.0,7.47,13.37,47.59359,-54.27349
2021-08-17 22:34:01+00:00,233.0,6.54,235.0,7.68,13.37,47.59359,-54.27349
2021-08-17 22:44:01+00:00,235.0,6.37,232.0,7.07,13.37,47.59359,-54.27349
2021-08-17 22:54:01+00:00,240.0,6.58,239.0,7.42,13.37,47.59359,-54.27349
2021-08-17 23:04:01+00:00,235.0,6.48,232.0,7.15,13.37,47.59359,-54.27349
2021-08-17 23:14:00+00:00,236.0,6.44,232.0,7.0,12.81,47.59359,-54.27349
2021-08-17 23:24:00+00:00,236.0,6.31,233.0,6.93,12.81,47.59359,-54.27349
2021-08-17 23:34:00+00:00,239.0,6.95,244.0,7.76,12.81,47.59359,-54.27349
2021-08-17 23:44:00+00:00,248.0,6.98,253.0,8.44,12.81,47.59359,-54.27349
2021-08-17 23:54:00+00:00,247.0,7.24,257.0,8.6,12.81,47.59359,-54.27349
